SVR765 UUDD-UMKK

Flight info

Callsign SVR765
Flight time N/A
Altitude 36000
Route SUNUN4R SUNUN M869 RAVKA N50 NUDKO T561 ODATI P145 ATLUM DCT PISIS DCT ARANS/N0459F360 DCT PIDIN DCT PISIM DCT PIRUX DCT PIVAX DCT AGONA A716 TURIP TURIP3F
Aircraft A321/M-SDE3FGHIRWY/LB1

Departure

Time 2026-05-06 11:32
Airport Domodedovo International Airport (UUDD)

Arrival

Time N/A
Airport Khrabrovo Airport (UMKK)
Time Latitude Longitude Altitude Speed Heading
2026-05-06 10:57 55.41182 37.89914 603 ft 0 kts 40°
2026-05-06 11:19 55.41175 37.89905 602 ft 2 kts 40°
2026-05-06 11:19 55.41162 37.89885 602 ft 3 kts 40°
2026-05-06 11:19 55.41158 37.89879 603 ft 0 kts 76°
2026-05-06 11:19 55.41101 37.89685 603 ft 0 kts 49°
2026-05-06 11:22 55.41110 37.89708 602 ft 5 kts 61°
2026-05-06 11:23 55.41097 37.89782 602 ft 9 kts 137°
2026-05-06 11:23 55.41046 37.89847 602 ft 8 kts 146°
2026-05-06 11:23 55.41027 37.89870 602 ft 2 kts 146°
2026-05-06 11:23 55.41017 37.89868 602 ft 2 kts 200°
2026-05-06 11:24 55.40996 37.89849 602 ft 5 kts 219°
2026-05-06 11:24 55.40974 37.89799 602 ft 6 kts 239°
2026-05-06 11:24 55.40947 37.89727 602 ft 8 kts 236°
2026-05-06 11:24 55.40911 37.89636 602 ft 10 kts 235°
2026-05-06 11:25 55.40860 37.89539 602 ft 11 kts 225°
2026-05-06 11:25 55.40814 37.89422 602 ft 13 kts 232°
2026-05-06 11:25 55.40760 37.89289 602 ft 13 kts 224°
2026-05-06 11:25 55.40688 37.89303 602 ft 10 kts 147°
2026-05-06 11:26 55.40616 37.89386 602 ft 17 kts 147°
2026-05-06 11:26 55.40485 37.89547 602 ft 28 kts 145°
2026-05-06 11:26 55.40349 37.89707 602 ft 22 kts 147°
2026-05-06 11:26 55.40223 37.89849 602 ft 20 kts 147°
2026-05-06 11:27 55.40111 37.89982 602 ft 18 kts 145°
2026-05-06 11:27 55.40011 37.90104 602 ft 17 kts 145°
2026-05-06 11:27 55.39922 37.90212 602 ft 15 kts 146°
2026-05-06 11:27 55.39842 37.90307 602 ft 13 kts 146°
2026-05-06 11:28 55.39773 37.90389 602 ft 11 kts 146°
2026-05-06 11:28 55.39714 37.90459 602 ft 9 kts 146°
2026-05-06 11:28 55.39665 37.90516 602 ft 8 kts 146°
2026-05-06 11:28 55.39627 37.90552 602 ft 4 kts 189°
2026-05-06 11:29 55.39612 37.90536 602 ft 0 kts 227°
2026-05-06 11:29 55.39599 37.90511 602 ft 6 kts 229°
2026-05-06 11:30 55.39561 37.90412 602 ft 12 kts 236°
2026-05-06 11:30 55.39541 37.90310 602 ft 6 kts 303°
2026-05-06 11:30 55.39552 37.90297 602 ft 0 kts 327°
2026-05-06 11:31 55.39610 37.90230 602 ft 40 kts 326°
2026-05-06 11:31 55.40068 37.89686 603 ft 117 kts 327°
2026-05-06 11:32 55.40928 37.88665 605 ft 178 kts 328°
2026-05-06 11:32 55.42011 37.87373 1081 ft 193 kts 327°
2026-05-06 11:32 55.43048 37.85846 1893 ft 197 kts 307°
2026-05-06 11:32 55.43800 37.83781 2576 ft 203 kts 300°
2026-05-06 11:33 55.44567 37.81638 3007 ft 211 kts 303°
2026-05-06 11:33 55.45168 37.80444 3239 ft 217 kts 315°